Location: Ammerl�gen
(47.2167°N, 9.6000°E)
Time: 12:00:48
(UTC+00:00)

ISS - Visible Passes

Search period start: 28 September 2021 00:00
Search period end: 08 October 2021 00:00
Orbit: 417 x 422 km, 51.6° (Epoch: 28 September)

Date Brightness Start Highest point End Pass type
(mag) Time Alt. Az. Time Alt. Az. Time Alt. Az.
28 Sep -3.4 19:06:06 10° WNW 19:09:09 58° NNW 19:09:09 58° NNW visible
29 Sep -3.2 18:18:41 10° WNW 18:21:59 49° NNE 18:23:32 26° ENE visible
29 Sep -0.8 19:55:33 10° WNW 19:56:29 17° W 19:56:29 17° W visible
30 Sep -3.0 17:31:11 10° WNW 17:34:24 41° N 17:37:37 10° E visible
30 Sep -3.1 19:08:00 10° WNW 19:10:50 55° W 19:10:50 55° W visible
01 Oct -3.8 18:20:26 10° WNW 18:23:49 85° NNE 18:25:10 34° ESE visible
01 Oct -0.5 19:57:48 10° W 19:58:08 12° W 19:58:08 12° W visible
02 Oct -3.6 17:32:49 10° WNW 17:36:10 62° NNE 17:39:29 10° ESE visible
02 Oct -2.1 19:09:50 10° W 19:12:27 28° SW 19:12:27 28° SW visible
03 Oct -2.9 18:21:59 10° WNW 18:25:12 44° SW 18:26:48 25° SSE visible
04 Oct -3.5 17:34:09 10° WNW 17:37:30 68° SSW 17:40:50 10° SE visible
04 Oct -1.0 19:12:17 10° WSW 19:13:45 12° SW 19:14:08 12° SW visible
05 Oct -1.4 18:23:38 10° W 18:26:07 19° SW 18:28:33 10° S visible
06 Oct -1.9 17:35:23 10° W 17:38:22 29° SW 17:41:20 10° SSE visible
